Location: �perlecques
(50.8057°N, 2.1521°E)
Time: 21:38:03
(UTC+00:00)

Oscar 11 - Pass Details

Date: 25 September 2021
Orbit: 612 x 625 km, 97.6° (Epoch: 23 October)

Event Time Altitude Azimuth Distance (km) Brightness Sun altitude
Rises 04:26:54 0° 26° (NNE) 2,893 11.1 -12.6°
Reaches altitude 10° 04:29:38 10° 44° (NE) 1,981 10.6 -12.2°
Maximum altitude 04:32:46 19° 90° (E) 1,454 10.1 -11.7°
Drops below altitude 10° 04:35:53 10° 137° (SE) 1,970 10.1 -11.3°
Sets 04:38:35 0° 155° (SSE) 2,870 10.7 -10.8°
